Location: Sevilla
(37.3933°N, 5.9839°W)
Time: 13:02:00
(UTC+02:00)

Transit 2A Rocket - Pass Details

Date: 01 July 2024
Orbit: 592 x 894 km, 66.7° (Epoch: 27 April)

Event Time Altitude Azimuth Distance (km) Brightness Sun altitude
Rises 19:49:03 0° 200° (SSW) 3,051 8.2 21.2°
Reaches altitude 10° 19:51:17 10° 198° (SSW) 2,184 7.5 20.7°
Maximum altitude 19:56:15 72° 115° (ESE) 801 5.2 19.8°
Drops below altitude 10° 20:01:45 10° 32° (NNE) 2,406 7.5 18.7°
Sets 20:04:19 0° 30° (NNE) 3,387 8.2 18.2°
